This is the latest recevied weather packets stored in our database for station/object DM5AO-10. If no packets are shown the sender has not sent any weather packets the latest 10 day(s).
| Time | Temp. | Humidity | Pressure | Rain* | Wind** | Luminosity | Snow |
|---|---|---|---|---|---|---|---|
| 1787725571 | 21.11° C | 53% | 1021.4 hPa | - | - | - | - |
| 1787724670 | 21.11° C | 53% | 1021.4 hPa | - | - | - | - |
| 1787723769 | 21.11° C | 53% | 1021.4 hPa | - | - | - | - |
| 1787722868 | 20.56° C | 53% | 1021.3 hPa | - | - | - | - |
| 1787721967 | 20.56° C | 53% | 1021.1 hPa | - | - | - | - |
| 1787721066 | 20.56° C | 53% | 1021 hPa | - | - | - | - |
| 1787720166 | 20.56° C | 53% | 1021.1 hPa | - | - | - | - |
| 1787719265 | 20.56° C | 52% | 1021 hPa | - | - | - | - |
| 1787718364 | 20.56° C | 52% | 1021 hPa | - | - | - | - |
| 1787717463 | 20.56° C | 52% | 1020.9 hPa | - | - | - | - |
| 1787716562 | 21.11° C | 52% | 1020.9 hPa | - | - | - | - |
| 1787715661 | 20.56° C | 52% | 1020.9 hPa | - | - | - | - |
| 1787714760 | 21.11° C | 51% | 1020.7 hPa | - | - | - | - |
| 1787713859 | 21.11° C | 51% | 1020.8 hPa | - | - | - | - |
| 1787712959 | 20.56° C | 52% | 1020.7 hPa | - | - | - | - |
| 1787712058 | 21.11° C | 51% | 1020.8 hPa | - | - | - | - |
| 1787711156 | 21.11° C | 51% | 1020.7 hPa | - | - | - | - |
| 1787710255 | 21.67° C | 50% | 1020.7 hPa | - | - | - | - |
| 1787709354 | 21.11° C | 51% | 1020.7 hPa | - | - | - | - |
| 1787708454 | 21.11° C | 51% | 1020.6 hPa | - | - | - | - |
| 1787707552 | 21.67° C | 50% | 1020.5 hPa | - | - | - | - |
| 1787706656 | 21.67° C | 49% | 1020.5 hPa | - | - | - | - |
| 1787705751 | 21.67° C | 49% | 1020.4 hPa | - | - | - | - |
| 1787704850 | 21.67° C | 49% | 1020.3 hPa | - | - | - | - |
| 1787703949 | 22.22° C | 48% | 1020.4 hPa | - | - | - | - |
* Rain since midnight (hover to see other rain measurements)
** Current wind speed in m/s (hover to see current wind gust speed)